Regional Weather Roundup
Issued by NWS Little Rock, AR

Home | Current Version | Previous Version | Text Only | Print | Product List | Glossary On
Versions: 1 2 3 4 5 6 7 8 9 10 11 12 13 14 15 16 17 18 19 20 21 22 23 24 25 26 27 28 29 30 31 32 33 34 35 36 37 38 39 40 41 42 43 44 45 46 47 48 49 50
000
ASUS44 KLZK 300305
RWRLZK

WEATHER ROUNDUP FOR ARKANSAS
NATIONAL WEATHER SERVICE LITTLE ROCK AR
1000 PM CDT SAT APR 29 2017

NOTE: "FAIR" INDICATES FEW OR NO CLOUDS BELOW 12,000 FEET WITH NO
SIGNIFICANT WEATHER AND/OR OBSTRUCTIONS TO VISIBILITY.

ARZ001-003-010-029-300400-
NORTHWEST ARKANSAS

CITY           SKY/WX    TMP DP  RH WIND       PRES   REMARKS
FAYETTEVILLE   CLOUDY    64  64 100 E3        29.68R
FORT SMITH     CLOUDY    69  65  86 NE7       29.62R
HARRISON       LGT RAIN  63  63 100 S8        29.77R
BENTONVILLE    CLOUDY    64  61  88 SE10      29.66F
ROGERS         LGT RAIN  63  62  97 SE12      29.68F
SILOAM SPGS    CLOUDY    64  59  82 SE12      29.63S
HIGHFILL       LGT RAIN  64  64 100 SE10      29.65F
$$

ARZ004-005-016-300400-
NORTH CENTRAL ARKANSAS

CITY           SKY/WX    TMP DP  RH WIND       PRES   REMARKS
BATESVILLE     CLOUDY    68  64  88 E10       29.77S
FLIPPIN        CLOUDY    64  61  88 E9G16     29.72R
MTN HOME       TSTM      64  63  96 SE14      29.76R
$$

ARZ040-041-300400-
WEST CENTRAL ARKANSAS

CITY           SKY/WX    TMP DP  RH WIND       PRES   REMARKS
MENA           NOT AVBL
$$

ARZ009-017-025-026-028-300400-
NORTHEAST ARKANSAS

CITY           SKY/WX    TMP DP  RH WIND       PRES   REMARKS
CORNING        RAIN      68  68 100 E6        29.87R
JONESBORO      RAIN      68  66  93 SE9       29.82S
NEWPORT        LGT RAIN  68  66  93 SE16      29.79R
WALNUT RIDGE   CLOUDY    66  61  82 SE18G25   29.81R
BLYTHEVILLE    LGT RAIN  68  66  93 VRB3      29.86F
$$

ARZ022-023-033-042-044-300400-
CENTRAL ARKANSAS

CITY           SKY/WX    TMP DP  RH WIND       PRES   REMARKS
LITTLE ROCK    CLOUDY    69  67  93 E9        29.70S
N LITTLE ROCK    N/A     68  66  92 E10       29.69S
JACKSONVILLE   CLOUDY    69  69  99 E12       29.71R
CONWAY           N/A     68  64  88 NW13G24   29.71R FOG
SEARCY         TSTM      70  66  88 SE10      29.77R
HOT SPRINGS    CLOUDY    70  69  97 E9        29.65F
RUSSELLVILLE   TSTM      69  66  90 SE5       29.68F FOG
CLINTON        TSTM      70  66  88 SW13G32   29.77R VSB 1/2
$$

ARZ036-300400-
EAST ARKANSAS

CITY           SKY/WX    TMP DP  RH WIND       PRES   REMARKS
WEST MEMPHIS   CLOUDY    70  69  97 SE12      29.82R
$$

ARZ050-053-066-070-073-300400-
SOUTHWEST ARKANSAS

CITY           SKY/WX    TMP DP  RH WIND       PRES   REMARKS
ARKADELPHIA    CLOUDY    73  67  81 SE9       29.65R
CAMDEN         CLOUDY    70  64  83 SE8       29.68R
TEXARKANA      TSTM      74  73  97 S14G22    29.60F FOG
EL DORADO      LGT RAIN  71  69  93 SE8       29.69R
DE QUEEN       CLOUDY    70  69  97 S10       29.61F THUNDER
$$

ARZ056-057-069-300400-
SOUTHEAST ARKANSAS

CITY           SKY/WX    TMP DP  RH WIND       PRES   REMARKS
PINE BLUFF     CLOUDY    69  65  86 SE15      29.72S
STUTTGART      CLOUDY    70  57  64 E7        29.73F THUNDER
MONTICELLO     CLOUDY    71  66  84 E6        29.75R

$$





USA.gov is the U.S. government's official web portal to all federal, state and local government web resources and services.